Location: Fours
(44.3167°N, 6.7000°E)
Time: 06:30:03
(UTC+00:00)

Cosmos 923 Rocket - Pass Details

Date: 30 November 2020
Orbit: 757 x 786 km, 74.0° (Epoch: 27 January)

Event Time Altitude Azimuth Distance (km) Brightness Sun altitude
Rises 17:51:08 0° 187° (S) 3,199 7.5 -20.1°
Reaches altitude 10° 17:53:31 10° 184° (S) 2,279 6.6 -20.5°
Maximum altitude 17:58:34 58° 106° (ESE) 881 4.0 -21.4°
Enters shadow 17:59:41 47° 59° (ENE) 997 4.1 -21.6°
